Regional Weather Roundup
Issued by NWS Green Bay, WI

Home | Current Version | Previous Version | Graphics & Text | Print | Product List | Glossary On
Versions: 1 2 3 4 5 6 7 8 9 10 11 12 13 14 15 16 17 18 19 20 21 22 23 24 25 26 27 28 29 30 31 32 33 34 35 36 37 38 39 40 41 42 43 44 45 46 47 48 49 50
000
ASUS43 KGRB 030910
RWRGRB

NORTH-CENTRAL AND NORTHEAST WISCONSIN REGIONAL WEATHER ROUNDUP
NATIONAL WEATHER SERVICE GREEN BAY WI
400 AM CDT SUN MAY 03 2015

WIZ005-009-010>012-018-019-031000-
NORTH CENTRAL WISCONSIN

CITY           SKY/WX    TMP DP  RH WIND       PRES   REMARKS
IRONWOOD       MOCLDY    63  48  59 SW9G18    29.72R
MANITOWISH WTR PTCLDY    58  50  75 SW8       29.79S
ARBOR VITAE    PTCLDY    57  49  75 SW6       29.81S
EAGLE RIVER    PTCLDY    59  47  63 SW7       29.81S
LAND O LAKES   PTCLDY    58  48  69 S5        29.81F
RHINELANDER    CLEAR     58  48  69 SW9       29.83F
PHILLIPS       PTCLDY    58  49  74 SW8       29.80S
ANTIGO         CLEAR     53  47  79 SW7       29.86S
TOMAHAWK       CLEAR     55  47  76 CALM      29.83S
MERRILL        CLEAR     56  49  77 SW5       29.84S
$$

WIZ013-073-031000-
NORTHEAST WISCONSIN

CITY           SKY/WX    TMP DP  RH WIND       PRES   REMARKS
IRON MOUNTAIN  CLOUDY    59  46  62 S5        29.81S
MARINETTE      CLEAR     57  43  58 SW7       29.85S
OCONTO         CLEAR     48  43  82 S3        29.86S
$$

WIZ017-030-035>037-045-031000-
CENTRAL WISCONSIN

CITY           SKY/WX    TMP DP  RH WIND       PRES   REMARKS
MEDFORD        CLEAR     55  48  77 S10       29.83S
WAUSAU         CLEAR     58  49  72 S8        29.83F
MOSINEE        CLEAR     54  48  82 S9        29.87S
MARSHFIELD     CLEAR     54  48  80 S9        29.85S
WISC RAPIDS    CLEAR     55  46  71 S5        29.87F
STEVENS POINT  CLEAR     52  46  77 S6        29.87S
WAUPACA        CLEAR     54  44  70 S6        29.88S
SHAWANO        CLEAR     56  44  62 CALM      29.86F
CLINTONVILLE   CLEAR     54  43  66 CALM      29.87S
$$

WIZ038-039-048-051-031000-
FOX VALLEY

CITY           SKY/WX    TMP DP  RH WIND       PRES   REMARKS
NWS GREEN BAY  CLEAR     57  47  69 SW7       29.88S
APPLETON       CLEAR     55  45  67 SW9       29.89S
OSHKOSH        CLEAR     55  45  68 S9        29.89F
FOND DU LAC    PTCLDY    59  46  62 SW8       29.90F
$$

WIZ022-050-052-031000-
EAST CENTRAL WISCONSIN

CITY           SKY/WX    TMP DP  RH WIND       PRES   REMARKS
STURGEON BAY   CLEAR     57  43  58 SW9       29.89S
MANITOWOC      CLEAR     45  42  89 S3        29.90S
SHEBOYGAN      CLEAR     56  44  64 SW9       29.91S
$$

LMZ563-521-522-541>543-031000-
LAKESHORE

STATION/POSITION TIME  TEMP    WIND        PRES    VSBY  WAVE
                       AIR SEA DIR/SP/G                  HT/PER
                 (UTC) (F)     (DEG/KT/KT) (MB)    (MI)  (FT/S)
SHEBOYGAN LKSHOR 0900   59     220/  6/  6 1013.1S
KEWAUNEE LKSHORE 0900   59     240/  6/ 10 1011.1F
NORTHPORT PIER   0900   53     210/  2/  8 1010.8S
SISTER BAY LKSHO 0900   64     220/ 14/ 18   N/A
CHAMBERS ISLAND  0900   58     180/  6/ 10 1011.2S
MENOMINEE LKSHOR 0900   59     210/  8/ 10 1011.6F
$$



USA.gov is the U.S. government's official web portal to all federal, state and local government web resources and services.